Glendive, MT

10:22 AM MDT on October 22, 2017 (GMT -0600)
Dawson Community

Weather History for KGDV - February, 2012

Change the Weather History Date:

Friday, February 10, 2012

  Actual Average Record
Temperature  
Mean Temperature 2 °F -  
Max Temperature 10 °F 30 °F 46 °F (2005)
Min Temperature -7 °F 12 °F -14 °F (2014)
Degree Days  
Heating Degree Days 64    
Moisture  
Dew Point -9 °F    
Average Humidity 61    
Maximum Humidity 100    
Minimum Humidity 37    
Precipitation  
Precipitation 0.00 in - - ()
Sea Level Pressure  
Sea Level Pressure 30.48 in    
Wind  
Wind Speed 7 mph (NNE)    
Max Wind Speed 10 mph    
Max Gust Speed -    
Visibility 10 miles    
Events      
Averages and records for this station are not official NWS values.
T = Trace of Precipitation, MM = Missing Value Source: NWS Daily Summary

Daily Weather History Graph

Daily Weather History Graph

Search for Another Location

Airport or City:

Trip Planner

Search our weather history database for the weather conditions in past years. The results will help you decide how hot, cold, wet, or windy it might be!

Date:

Astronomy

Feb. 10, 2012 Rise Set
Actual Time 7:12 AM MST 5:15 PM MST
Civil Twilight 6:40 AM MST 5:46 PM MST
Nautical Twilight 6:04 AM MST 6:22 PM MST
Astronomical Twilight 5:29 AM MST 6:58 PM MST
Moon 9:16 PM MST (2/10) 8:05 AM MST (2/10)
Length of Visible Light 11h 06m
Length of Day
10h 02m
Waning Gibbous, 89% of the Moon is Illuminated
Feb 10
Waning Gibbous
Feb 14
Last Quarter
Feb 21
New
Feb 29
First Quarter
Mar 8
Full

Hourly Weather History & Observations

Time (MST) Temp. Windchill Dew Point Humidity Pressure Visibility Wind Dir Wind Speed Gust Speed Precip Events Conditions
12:35 AM 6.8 °F -5.9 °F -2.2 °F 67% 30.34 in 10.0 mi NNE 8.1 mph - N/A   Partly Cloudy
12:55 AM 6.8 °F -6.9 °F 1.4 °F 79% 30.35 in 10.0 mi NNE 9.2 mph - N/A   Clear
1:15 AM 5.0 °F -6.9 °F -2.2 °F 72% 30.36 in 10.0 mi NNE 6.9 mph - N/A   Clear
1:36 AM 3.2 °F -10.3 °F -0.4 °F 85% 30.36 in 10.0 mi North 8.1 mph - N/A   Clear
1:55 AM 3.2 °F -11.3 °F -5.8 °F 66% 30.36 in 10.0 mi North 9.2 mph - N/A   Clear
2:15 AM 3.2 °F -10.3 °F -4.0 °F 72% 30.37 in 10.0 mi North 8.1 mph - N/A   Clear
2:35 AM 3.2 °F -10.3 °F -5.8 °F 66% 30.38 in 10.0 mi North 8.1 mph - N/A   Clear
3:15 AM -0.4 °F -13.4 °F -5.8 °F 78% 30.38 in 10.0 mi North 6.9 mph - N/A   Clear
3:35 AM -0.4 °F -14.7 °F -7.6 °F 72% 30.38 in 10.0 mi North 8.1 mph - N/A   Clear
3:55 AM -0.4 °F -14.7 °F -7.6 °F 72% 30.39 in 10.0 mi North 8.1 mph - N/A   Clear
4:15 AM -2.2 °F -14.2 °F -9.4 °F 71% 30.40 in 10.0 mi NNW 5.8 mph - N/A   Clear
4:35 AM -2.2 °F -18.0 °F -7.6 °F 78% 30.40 in 10.0 mi North 9.2 mph - N/A   Clear
5:15 AM -2.2 °F -10.4 °F -7.6 °F 78% 30.42 in 10.0 mi North 3.5 mph - N/A   Clear
5:35 AM -4.0 °F -14.6 °F -7.6 °F 85% 30.43 in 10.0 mi North 4.6 mph - N/A   Clear
5:55 AM -2.2 °F -16.8 °F -9.4 °F 71% 30.44 in 10.0 mi NNE 8.1 mph - N/A   Clear
6:16 AM -5.8 °F -18.4 °F -11.2 °F 77% 30.44 in 10.0 mi North 5.8 mph - N/A   Clear
6:35 AM -5.8 °F -18.4 °F -11.2 °F 77% 30.45 in 10.0 mi North 5.8 mph - N/A   Clear
7:15 AM -5.8 °F -19.9 °F -11.2 °F 77% 30.46 in 10.0 mi North 6.9 mph - N/A   Clear
7:35 AM -7.6 °F - -20.2 °F 54% 30.47 in 10.0 mi Calm Calm - N/A   Clear
7:55 AM -2.2 °F -16.8 °F - N/A% 30.48 in 10.0 mi NNE 8.1 mph - N/A   Clear
8:15 AM -2.2 °F -14.2 °F -20.2 °F 42% 30.49 in 10.0 mi NNE 5.8 mph - N/A   Clear
8:35 AM -2.2 °F -14.2 °F -2.2 °F 100% 30.50 in 10.0 mi NE 5.8 mph - N/A   Clear
9:15 AM -0.4 °F -13.4 °F -5.8 °F 78% 30.51 in 10.0 mi ENE 6.9 mph - N/A   Clear
9:35 AM -0.4 °F -13.4 °F -7.6 °F 72% 30.52 in 10.0 mi ENE 6.9 mph - N/A   Clear
9:55 AM -0.4 °F -12.0 °F -7.6 °F 72% 30.52 in 10.0 mi ENE 5.8 mph - N/A   Clear
10:35 AM 1.4 °F -6.2 °F -7.6 °F 66% 30.53 in 10.0 mi NE 3.5 mph - N/A   Clear
10:55 AM 3.2 °F -4.2 °F -5.8 °F 66% 30.53 in 10.0 mi NE 3.5 mph - N/A   Clear
11:15 AM 3.2 °F -7.8 °F -7.6 °F 61% 30.53 in 10.0 mi NE 5.8 mph - N/A   Clear
11:35 AM 5.0 °F -5.6 °F -9.4 °F 52% 30.53 in 10.0 mi NE 5.8 mph - N/A   Clear
11:55 AM 6.8 °F -3.5 °F -7.6 °F 52% 30.52 in 10.0 mi ENE 5.8 mph - N/A   Clear
12:15 PM 6.8 °F -5.9 °F -9.4 °F 48% 30.53 in 10.0 mi ENE 8.1 mph - N/A   Clear
12:35 PM 6.8 °F -5.9 °F -9.4 °F 48% 30.52 in 10.0 mi ENE 8.1 mph - N/A   Clear
12:55 PM 6.8 °F -3.5 °F -9.4 °F 48% 30.52 in 10.0 mi NNE 5.8 mph - N/A   Clear
1:55 PM 8.6 °F -5.5 °F -11.2 °F 40% 30.51 in 10.0 mi ENE 10.4 mph - N/A   Clear
2:15 PM 8.6 °F -3.7 °F -9.4 °F 44% 30.51 in 10.0 mi ENE 8.1 mph - N/A   Clear
2:35 PM 8.6 °F -4.7 °F -9.4 °F 44% 30.51 in 10.0 mi ENE 9.2 mph - N/A   Clear
2:55 PM 10.4 °F -3.3 °F -11.2 °F 37% 30.51 in 10.0 mi NE 10.4 mph - N/A   Clear
3:15 PM 8.6 °F -3.7 °F -11.2 °F 40% 30.51 in 10.0 mi ENE 8.1 mph - N/A   Clear
3:35 PM 8.6 °F -1.3 °F -11.2 °F 40% 30.51 in 10.0 mi NE 5.8 mph - N/A   Clear
3:55 PM 8.6 °F 0.1 °F -9.4 °F 44% 30.51 in 10.0 mi NE 4.6 mph - N/A   Clear
4:35 PM 8.6 °F -1.3 °F -9.4 °F 44% 30.52 in 10.0 mi NNE 5.8 mph - N/A   Clear
4:55 PM 8.6 °F -1.3 °F -9.4 °F 44% 30.52 in 10.0 mi NNE 5.8 mph - N/A   Clear
5:35 PM 3.2 °F -9.1 °F -11.2 °F 51% 30.52 in 10.0 mi NNE 6.9 mph - N/A   Clear
5:55 PM 3.2 °F -9.1 °F - N/A% 30.52 in 10.0 mi NNE 6.9 mph - N/A   Clear
6:15 PM 1.4 °F -9.9 °F -11.2 °F 56% 30.53 in 10.0 mi NNE 5.8 mph - N/A   Clear
6:35 PM 1.4 °F -9.9 °F -11.2 °F 56% 30.53 in 10.0 mi NNE 5.8 mph - N/A   Clear
6:55 PM 1.4 °F -9.9 °F -13.0 °F 51% 30.53 in 10.0 mi NNE 5.8 mph - N/A   Clear
7:15 PM -0.4 °F -10.4 °F -13.0 °F 55% 30.53 in 10.0 mi NNE 4.6 mph - N/A   Clear
7:35 PM -0.4 °F -10.4 °F -11.2 °F 60% 30.53 in 10.0 mi NNE 4.6 mph - N/A   Clear
7:55 PM -0.4 °F -10.4 °F -11.2 °F 60% 30.54 in 10.0 mi NNE 4.6 mph - N/A   Clear
8:15 PM -0.4 °F -8.3 °F -14.8 °F 51% 30.54 in 10.0 mi NNE 3.5 mph - N/A   Clear
8:35 PM -0.4 °F -10.4 °F -11.2 °F 60% 30.55 in 10.0 mi NE 4.6 mph - N/A   Clear
8:55 PM -2.2 °F -14.2 °F -14.8 °F 55% 30.55 in 10.0 mi NNE 5.8 mph - N/A   Clear
9:15 PM -2.2 °F -12.5 °F -13.0 °F 60% 30.55 in 10.0 mi NE 4.6 mph - N/A   Clear
9:35 PM -0.4 °F -8.3 °F -9.4 °F 66% 30.56 in 10.0 mi NE 3.5 mph - N/A   Clear
9:55 PM -2.2 °F -10.4 °F -13.0 °F 60% 30.56 in 10.0 mi NE 3.5 mph - N/A   Clear
10:15 PM -2.2 °F -12.5 °F -14.8 °F 55% 30.56 in 10.0 mi NNE 4.6 mph - N/A   Clear
10:35 PM -2.2 °F -10.4 °F -16.6 °F 50% 30.56 in 10.0 mi NNE 3.5 mph - N/A   Clear
10:55 PM -5.8 °F - -14.8 °F 65% 30.56 in 10.0 mi Calm Calm - N/A   Clear
11:15 PM -5.8 °F - -13.0 °F 71% 30.56 in 10.0 mi Calm Calm - N/A   Clear
11:55 PM -2.2 °F - -16.6 °F 50% 30.56 in 10.0 mi Calm Calm - N/A   Clear